TimeCDT,TemperatureF,Dew PointF,Humidity,Sea Level PressureIn,VisibilityMPH,Wind Direction,Wind SpeedMPH,Gust SpeedMPH,PrecipitationIn,Events,Conditions,WindDirDegrees,DateUTC
12:52 AM,44.1,33.1,65,29.99,10.0,Calm,Calm,-,N/A,,Overcast,0,2012-11-01 05:52:00
1:52 AM,42.1,33.1,70,29.99,10.0,Calm,Calm,-,N/A,,Overcast,0,2012-11-01 06:52:00
2:52 AM,37.0,32.0,82,29.99,10.0,Calm,Calm,-,N/A,,Clear,0,2012-11-01 07:52:00
3:52 AM,37.9,32.0,79,29.98,10.0,Calm,Calm,-,N/A,,Clear,0,2012-11-01 08:52:00
4:52 AM,34.0,30.0,85,29.97,10.0,Calm,Calm,-,N/A,,Clear,0,2012-11-01 09:52:00
5:52 AM,34.0,30.9,89,29.99,9.0,NW,3.5,-,N/A,,Clear,310,2012-11-01 10:52:00
6:52 AM,35.1,30.9,85,30.00,10.0,NNW,6.9,-,N/A,,Clear,330,2012-11-01 11:52:00
7:52 AM,37.0,33.1,86,30.02,9.0,NW,6.9,-,N/A,,Clear,320,2012-11-01 12:52:00
8:52 AM,39.0,35.1,86,30.06,7.0,NNW,9.2,-,N/A,,Clear,330,2012-11-01 13:52:00
8:59 AM,39.2,35.6,87,30.03,5.0,NNW,6.9,-,N/A,,Scattered Clouds,330,2012-11-01 13:59:00
9:02 AM,39.2,35.6,87,30.03,5.0,NNW,5.8,-,N/A,,Mostly Cloudy,340,2012-11-01 14:02:00
9:08 AM,39.2,35.6,87,30.03,5.0,North,8.1,-,N/A,,Mostly Cloudy,350,2012-11-01 14:08:00
9:36 AM,41.0,37.4,87,30.04,3.0,North,11.5,-,N/A,,Overcast,10,2012-11-01 14:36:00
9:52 AM,41.0,37.9,89,30.08,3.0,North,12.7,-,N/A,,Overcast,360,2012-11-01 14:52:00
10:52 AM,42.1,39.0,89,30.09,5.0,North,10.4,-,N/A,,Overcast,10,2012-11-01 15:52:00
11:52 AM,42.1,39.0,89,30.09,7.0,North,12.7,-,N/A,,Overcast,350,2012-11-01 16:52:00
12:49 PM,42.8,37.4,81,30.06,10.0,NNE,12.7,-,N/A,,Overcast,20,2012-11-01 17:49:00
12:52 PM,42.1,37.0,82,30.08,10.0,NNE,9.2,-,N/A,,Overcast,20,2012-11-01 17:52:00
1:52 PM,44.1,37.0,76,30.05,10.0,NNW,9.2,-,N/A,,Overcast,340,2012-11-01 18:52:00
2:47 PM,46.4,37.4,71,30.01,10.0,NNW,4.6,-,N/A,,Scattered Clouds,340,2012-11-01 19:47:00
2:52 PM,48.0,37.9,68,30.03,10.0,Variable,4.6,-,N/A,,Partly Cloudy,0,2012-11-01 19:52:00
3:52 PM,50.0,37.0,61,30.01,10.0,WNW,3.5,-,N/A,,Clear,300,2012-11-01 20:52:00
4:52 PM,50.0,36.0,59,30.01,10.0,West,3.5,-,N/A,,Clear,280,2012-11-01 21:52:00
5:52 PM,48.0,35.1,61,30.01,10.0,Calm,Calm,-,N/A,,Clear,0,2012-11-01 22:52:00
6:52 PM,44.1,30.0,58,30.01,10.0,NE,5.8,-,N/A,,Clear,40,2012-11-01 23:52:00
7:52 PM,43.0,28.9,58,30.03,10.0,NNE,5.8,-,N/A,,Clear,30,2012-11-02 00:52:00
8:52 PM,43.0,27.0,53,30.02,10.0,NE,8.1,-,N/A,,Clear,40,2012-11-02 01:52:00
9:52 PM,42.1,26.1,53,30.02,10.0,ENE,10.4,-,N/A,,Clear,70,2012-11-02 02:52:00
10:52 PM,37.9,26.1,62,30.03,10.0,East,10.4,-,N/A,,Clear,80,2012-11-02 03:52:00
11:52 PM,37.0,26.1,65,30.04,10.0,East,10.4,-,N/A,,Clear,80,2012-11-02 04:52:00